This is the latest recevied weather packets stored in our database for station/object W9WRP. If no packets are shown the sender has not sent any weather packets the latest 10 day(s).
| Time | Temp. | Humidity | Pressure | Rain* | Wind** | Luminosity | Snow |
|---|---|---|---|---|---|---|---|
| 1787768993 | 45° C | 12% | 1014.4 hPa | 0 mm | - | 676 W/m² | - |
| 1787768689 | 44.44° C | 13% | 1014.3 hPa | 0 mm | - | 668 W/m² | - |
| 1787768385 | 45° C | 13% | 1014 hPa | 0 mm | - | 663 W/m² | - |
| 1787768081 | 44.44° C | 13% | 1014.4 hPa | 0 mm | - | 657 W/m² | - |
| 1787767781 | 43.89° C | 13% | 1014.2 hPa | 0 mm | - | 648 W/m² | - |
| 1787767476 | 45° C | 13% | 1014.4 hPa | 0 mm | - | 641 W/m² | - |
| 1787767174 | 44.44° C | 13% | 1014.4 hPa | 0 mm | - | 632 W/m² | - |
| 1787766873 | 43.89° C | 13% | 1014.3 hPa | 0 mm | - | 622 W/m² | - |
| 1787766568 | 44.44° C | 13% | 1014.3 hPa | 0 mm | - | 613 W/m² | - |
| 1787766262 | 43.89° C | 14% | 1014.5 hPa | 0 mm | - | 604 W/m² | - |
| 1787765956 | 43.89° C | 13% | 1014.4 hPa | 0 mm | - | 593 W/m² | - |
| 1787765654 | 44.44° C | 13% | 1014.3 hPa | 0 mm | - | 582 W/m² | - |
| 1787765349 | 44.44° C | 13% | 1014.4 hPa | 0 mm | - | 569 W/m² | - |
| 1787765048 | 43.89° C | 13% | 1014.2 hPa | 0 mm | - | 557 W/m² | - |
| 1787764742 | 42.78° C | 14% | 1014.4 hPa | 0 mm | - | 546 W/m² | - |
| 1787764437 | 42.78° C | 14% | 1014.3 hPa | 0 mm | - | 421 W/m² | - |
| 1787764133 | 42.22° C | 15% | 1014.4 hPa | 0 mm | - | 502 W/m² | - |
| 1787763829 | 41.67° C | 15% | 1014.3 hPa | 0 mm | - | 285 W/m² | - |
| 1787763524 | 42.22° C | 15% | 1014.3 hPa | 0 mm | - | 450 W/m² | - |
| 1787763219 | 42.22° C | 15% | 1014.3 hPa | 0 mm | - | 261 W/m² | - |
| 1787762914 | 41.67° C | 15% | 1014.5 hPa | 0 mm | - | 151 W/m² | - |
| 1787762614 | 41.67° C | 15% | 1014.3 hPa | 0 mm | - | 138 W/m² | - |
| 1787762311 | 41.67° C | 15% | 1014.2 hPa | 0 mm | - | 167 W/m² | - |
| 1787762005 | 41.11° C | 16% | 1014.2 hPa | 0 mm | - | 138 W/m² | - |
| 1787761706 | 41.11° C | 16% | 1014.2 hPa | 0 mm | - | 127 W/m² | - |
* Rain latest hour (hover to see other rain measurements)
** Current wind speed in m/s (hover to see current wind gust speed)